TIME,DELAY(SENSOR),PRES,T(CTD),SAL,OXYGEN,RAWTEMP,T(OPTODE),TCPHASE,FLUOR,BETA(BETA700),BETA(BETA412),BETA(BETA440),CDOM,C(CSC),ED(ED412.40),ED(ED444.00),ED(ED489.70),ED(ED554.30),LU(LU411.80),LU(LU443.40),LU(LU489.60),LU(LU554.10),COMP,TILTX,TILTX(TILTY),CHECK
1341523423,5810,496.8200073242187500,7.1002998352050780,34.1927986145019500,69.9621124267578100,584.5925903320312000,7.0808658599853520,49.9137496948242200,52,106,89,82,80,15371,2147748114,2147418157,2148004617,2147875611,2147628571,2147080475,2148245924,2147204425,581,5,13,5588
1341523533,5809,485.5400085449219000,7.2473001480102540,34.1871986389160160,74.2001190185546900,580.0637207031250000,7.2264189720153810,49.3194007873535160,51,106,93,80,80,15369,2147745691,2147421805,2148000649,2147872777,2147629531,2147084736,2148241078,2147206546,1301,4,13,10019
1341523632,5811,475.3500061035156000,7.3390998840332030,34.1827011108398440,78.2107772827148400,577.1403808593750000,7.3202738761901855,48.7910308837890600,51,106,88,81,79,15369,2147747264,2147423579,2148001051,2147874322,2147628498,2147085321,2148243712,2147204050,1194,4,13,56491
1341523764,5806,462.6000061035156000,7.4678001403808590,34.1768989562988300,82.1680526733398400,573.0233764648438000,7.4523220062255860,48.2587699890136700,53,107,89,79,78,15370,2147748196,2147422134,2147999387,2147872576,2147630052,2147091593,2148236269,2147203702,295,4,13,10011
1341523904,5807,451.9500122070312500,7.7177000045776370,34.1699981689453100,91.4188537597656200,565.0587768554688000,7.7073550224304200,47.0796394348144500,50,108,89,79,79,15365,2147743405,2147420269,2148002971,2147873673,2147626953,2147084022,2148242267,2147205677,369,4,12,36424
1341524069,5810,440.3299865722656000,7.9052000045776370,34.1669006347656250,99.3176879882812500,559.4885864257812000,7.8853912353515625,46.1289215087890600,50,105,92,81,78,15368,2147745984,2147420489,2148004452,2147875254,2147625819,2147090459,2148238336,2147205915,2381,4,13,32792
1341524200,5807,428.8200073242187500,8.0179004669189450,34.1558990478515600,104.6283035278320300,555.5512695312500000,8.0110797882080080,45.5087089538574200,51,110,89,81,79,15367,2147743890,2147419968,2148000338,2147874258,2147623021,2147089444,2148235382,2147201828,3135,4,13,58619
1341524321,5809,418.0700073242187500,8.3492002487182620,34.1492996215820300,114.3906021118164000,545.3809814453125000,8.3351354598999020,44.3524398803710940,51,106,91,81,78,15365,2147744777,2147418377,2147999122,2147873609,2147620818,2147089161,2148232795,2147205632,499,5,13,30173
1341524444,5809,407.7200012207031000,8.5872001647949220,34.1507987976074200,123.8451995849609400,537.7327270507812000,8.5782785415649410,43.3151512145996100,50,109,88,81,77,15364,2147743643,2147421632,2147997549,2147871579,2147620169,2147095003,2148230610,2147205412,766,5,13,51740
1341524587,5809,396.2699890136719000,8.9821996688842770,34.1459999084472660,137.9058990478515600,525.5806274414062000,8.9636497497558600,41.8365898132324200,50,109,92,81,76,15365,2147740388,2147421074,2147999414,2147877092,2147621677,2147092973,2148228397,2147203611,2570,4,13,60681
1341524722,5808,385.5499877929687500,9.1976995468139650,34.1470985412597660,145.2733001708984400,518.4536132812500000,9.1891412734985350,41.0866508483886700,51,108,90,81,75,15364,2147738651,2147421248,2148000996,2147875446,2147616786,2147099291,2148227721,2147203821,3152,4,13,63456
1341524865,5810,374.6600036621094000,9.5942001342773440,34.1470985412597660,157.4064025878906200,505.6931152343750000,9.5919275283813480,39.8875007629394500,50,107,88,80,75,15365,2147738450,2147419867,2147999597,2147875602,2147614262,2147105344,2148225810,2147206171,1134,4,13,9753
1341525019,5809,362.5799865722656000,9.8452997207641600,34.1502990722656250,167.1255035400390600,498.1064147949219000,9.8308496475219730,39.0174102783203100,50,108,89,81,73,15365,2147738953,2147420516,2147999323,2147874852,2147614464,2147105819,2148224128,2147206601,1352,4,13,57237
1341525131,5810,350.9899902343750000,10.0881004333496100,34.1500015258789060,172.5379028320312500,490.1418151855469000,10.0812501907348630,38.4874687194824200,50,108,92,82,72,15366,2147737462,2147422692,2148001408,2147872411,2147610523,2147103040,2148220160,2147207478,2088,4,13,3685
1341525230,5808,340.1700134277344000,10.4421997070312500,34.1596984863281250,177.6479949951172000,478.2861022949219000,10.4531898498535160,37.9248390197753900,50,108,88,82,73,15364,2147738779,2147421924,2148005540,2147874770,2147612553,2147108306,2148225270,2147206418,2312,4,13,21145
1341525359,5809,328.0899963378906000,10.8289003372192380,34.1698989868164060,183.9604949951172000,465.9569091796875000,10.8390398025512700,37.2868194580078100,48,110,89,82,71,15364,2147739428,2147421376,2148009298,2147875355,2147609426,2147109549,2148221888,2147205522,3198,4,13,15828
1341525513,5808,318.1600036621094000,11.2819995880126950,34.1893005371093750,189.4394073486328000,452.1387023925781000,11.2703800201416020,36.6963005065918000,49,109,89,82,72,15362,2147733430,2147423634,2148013897,2147875099,2147606189,2147114550,2148226377,2147206116,529,4,14,26283
1341525688,5809,306.6300048828125000,11.6623001098632810,34.2084007263183600,193.3085021972656200,439.7460937500000000,11.6562900543212890,36.2445297241210940,49,110,88,81,72,15360,2147732224,2147430400,2148020278,2147877924,2147605622,2147115712,2148221284,2147207762,2542,4,13,26799
1341525831,5807,295.2099914550781000,12.0971002578735350,34.2267990112304700,195.8018035888672000,425.9967041015625000,12.0834903717041020,35.8648986816406250,49,109,89,82,70,15361,2147729289,2147430784,2148026322,2147875264,2147602916,2147122633,2148225965,2147208786,1906,4,14,17562
1341525977,5808,282.2600097656250000,12.7695999145507810,34.2635002136230500,201.1976928710937500,402.6896972656250000,12.8054895401000980,35.1632881164550800,49,107,90,80,69,15367,2147733001,2147428672,2148026633,2147873883,2147597696,2147129819,2148223424,2147209033,1328,4,13,4566
1341526087,5806,271.4299926757812500,13.5970001220703120,34.3230018615722660,203.5751037597656200,375.3181152343750000,13.6503400802612300,34.5951805114746100,48,107,90,81,69,15366,2147730029,2147445613,2148077284,2147873298,2147595702,2147140114,2148237851,2147212032,389,5,14,51183
1341526211,5808,260.7600097656250000,14.9566001892089840,34.4483985900878900,205.6463928222656200,334.0798034667969000,14.9180603027343750,33.8494491577148440,48,107,89,81,69,15364,2147726601,2147438281,2148046957,2147874185,2147591744,2147144310,2148220745,2147213394,821,4,14,8119
1341526354,5809,249.4400024414062500,15.8396997451782230,34.5164985656738300,205.2135009765625000,304.2567138671875000,15.8319101333618160,33.4346313476562500,50,106,86,80,68,15354,2147724772,2147466989,2148117275,2147871826,2147587163,2147169206,2148254290,2147213942,1036,3,14,15013
1341526497,5806,238.7299957275390600,16.4073009490966800,34.5831985473632800,209.9295959472656200,285.6606140136719000,16.4008293151855470,32.8954505920410160,50,105,90,80,68,15359,2147730770,2147499410,2148204032,2147876352,2147584777,2147195300,2148291172,2147221101,779,4,14,11410
1341526630,5810,227.4199981689453000,17.8586997985839840,34.7414016723632800,214.7106018066406200,239.5843963623047000,17.8086490631103500,31.9789695739746100,53,107,91,82,65,15357,2147735140,2147543241,2148285942,2147873389,2147584118,2147225947,2148328484,2147222893,1088,3,14,27937
1341526751,5807,216.1799926757812500,18.3694992065429700,34.8227005004882800,219.6795043945312500,221.6121978759765600,18.3574790954589840,31.4660205841064450,56,107,92,80,66,15345,2147749814,2147602843,2148403904,2147873499,2147588909,2147266066,2148379072,2147228900,1335,3,14,52934
1341526864,5809,205.3000030517578000,18.7297000885009770,34.8785018920898440,218.1743011474609400,209.5536956787109400,18.7257595062255860,31.3798809051513670,56,106,89,82,66,15348,2147781458,2147684964,2148557540,2147874304,2147595995,2147323693,2148455451,2147233069,2382,3,15,26630
1341526952,5804,196.7400054931640600,18.9692993164062500,34.9068984985351560,219.1163940429687500,201.0308074951172000,18.9860897064209000,31.2145404815673830,57,110,88,81,65,15343,2147816566,2147778925,2148727808,2147876434,2147613494,2147378742,2148535844,2147243986,2930,3,14,1355
1341527007,5803,191.6000061035156200,19.4969997406005860,34.9770011901855500,220.4011993408203000,181.6356048583984400,19.5787506103515620,30.8856792449951170,63,109,87,80,63,15342,2147850870,2147854509,2148886125,2147880054,2147628425,2147429275,2148613833,2147248393,525,4,15,27108
1341527062,5807,186.9799957275390600,20.0790004730224600,35.0644989013671900,223.0350036621093800,166.5370025634765600,20.0404300689697270,30.5492992401123050,68,110,91,81,64,15336,2147887277,2147937526,2149034797,2147878390,2147642550,2147477952,2148682697,2147252260,1099,4,15,20535
1341527117,5808,182.7299957275390600,20.4895992279052730,35.1029014587402340,223.5124969482422000,152.1927947998047000,20.4793796539306640,30.3351802825927730,75,112,89,83,63,15323,2147927396,2148018998,2149184338,2147880301,2147661915,2147530038,2148748827,2147257344,2102,2,15,9651
1341527191,5811,177.8300018310547000,20.6632003784179700,35.1333007812500000,225.8356018066406200,146.6519012451172000,20.6490402221679700,30.1460094451904300,79,114,90,82,63,15320,2147988754,2148125376,2149367314,2147877275,2147684114,2147591241,2148826322,2147261028,1531,3,15,41221
1341527246,5810,174.3999938964843800,20.8027992248535160,35.0973014831543000,225.0102996826172000,142.1027984619140600,20.7883796691894530,30.1271896362304700,79,118,92,84,63,15318,2148054070,2148251254,2149585225,2147879241,2147716562,2147662765,2148923264,2147269348,1554,3,15,28069
1341527323,5807,170.2200012207031200,21.0312004089355470,35.1226997375488300,222.3535003662109400,134.9156036376953000,21.0086307525634770,30.1662502288818360,83,114,89,81,64,15312,2148148251,2148416758,2149851373,2147880905,2147754102,2147756315,2149040557,2147281965,1587,3,15,42448
1341527400,5809,166.2200012207031200,21.5088996887207030,35.2229003906250000,225.5491027832031200,116.3236999511718800,21.5789699554443360,29.7645301818847660,91,114,90,82,62,15308,2148263286,2148611867,2150165357,2147886774,2147809490,2147856246,2149173997,2147293110,1094,3,16,64134
1341527480,5806,162.8800048828125000,21.9650001525878900,35.3165016174316400,236.7787017822265600,105.2016983032226600,21.9206295013427730,29.0841407775878900,90,114,92,82,61,15301,2148363346,2148791122,2150458468,2147887104,2147861138,2147965312,2149304448,2147300800,1273,2,16,48749
1341527579,5809,158.9600067138672000,22.0193004608154300,35.3266983032226560,242.9976959228515600,101.9050979614257800,22.0219802856445300,28.7582206726074220,95,114,91,83,62,15303,2148505554,2149038912,2150847131,2147890093,2147953883,2148120886,2149489974,2147315867,1181,2,15,39715
1341527678,5803,154.8500061035156200,22.1909008026123050,35.3349990844726560,245.7899017333984400,96.7866897583007800,22.1793994903564450,28.5689792633056640,95,113,92,82,60,15299,2148694811,2149340617,2151327140,2147891986,2148062272,2148307958,2149711350,2147332352,369,2,15,51330
1341527780,5809,150.0800018310547000,22.2952003479003900,35.3372993469238300,247.1260070800781200,93.2059478759765600,22.2895793914794920,28.4650402069091800,101,117,89,82,60,15284,2148979328,2149812315,2152048292,2147898221,2148228946,2148579099,2150053065,2147357275,3522,3,15,45094
1341527846,5808,146.7100067138672000,22.3794002532959000,35.3340988159179700,247.6454925537109400,90.4910583496093800,22.3731403350830080,28.4081993103027340,101,119,93,83,61,15284,2149219401,2150192704,2152617325,2147904813,2148361801,2148804781,2150317339,2147379382,276,2,15,13511
1341527934,5807,142.5299987792968800,22.4260997772216800,35.3306999206543000,247.9136962890625000,88.9360885620117200,22.4210205078125000,28.3769092559814450,108,119,91,82,59,15272,2149540013,2150687186,2153327122,2147911460,2148538358,2149081472,2150649234,2147406226,3437,2,16,28715
1341528022,5807,138.7700042724609400,22.4967002868652340,35.3266983032226560,248.0502014160156200,86.4915466308593800,22.4962997436523440,28.3404102325439450,105,120,91,83,60,15260,2149919277,2151273316,2154194788,2147925348,2148739538,2149397430,2151052388,2147433216,2476,2,16,41329
1341528123,5809,135.1499938964843800,22.5832996368408200,35.3250007629394500,248.7593994140625000,83.8118667602539000,22.5788497924804700,28.2758693695068360,114,121,93,84,59,15244,2150287945,2151847030,2155028644,2147936118,2148937280,2149684909,2151416722,2147460242,1425,2,16,11757
1341528244,5808,131.1300048828125000,22.6331005096435550,35.3193016052246100,249.1219024658203000,82.2395935058593800,22.6273002624511720,28.2404308319091800,116,123,93,84,59,15249,2150772818,2152607369,2156122569,2147955648,2149188836,2150054390,2151881014,2147500288,876,2,16,2522
1341528365,5807,126.7099990844726600,22.6553001403808600,35.3191986083984400,249.5346069335937500,81.4705123901367200,22.6509990692138670,28.2128601074218750,119,122,93,85,59,15242,2151504914,2153729353,2157725129,2147987373,2149566125,2150611163,2152586505,2147556489,272,2,16,13390
1341528461,5808,122.1999969482421900,22.6546993255615230,35.3160018920898440,250.0010070800781200,81.5756530761718800,22.6477603912353500,28.1939392089843750,109,123,91,84,58,15240,2152434953,2155137280,2159613888,2148024630,2150049755,2151308141,2153410130,2147626102,3410,2,15,27388
1341528527,5807,118.5899963378906200,22.6630992889404300,35.2933998107910160,248.6071929931640600,81.3146362304687500,22.6558094024658200,28.2512207031250000,131,127,94,85,59,15221,2153418038,2156595574,2161520539,2148067675,2150528073,2151978276,2154185947,2147696438,2917,2,16,40986
1341528604,5809,114.6800003051757800,22.6748008728027340,35.2732009887695300,245.8739929199218800,80.9324569702148400,22.6675891876220700,28.3661403656005860,146,126,92,85,60,15209,2154922971,2158821577,2164256813,2148129243,2151136731,2152826523,2155164004,2147791478,2321,2,16,41997
1341528692,5810,110.8300018310546900,22.6833000183105470,35.2416992187500000,243.4900054931640600,80.4946136474609400,22.6810798645019530,28.4664897918701170,145,128,91,84,61,15200,2156735387,2161392841,2167240384,2148203986,2151830390,2153756032,2156180498,2147901348,2043,2,16,12615
1341528793,5816,107.0199966430664000,22.6844997406005860,35.2350006103515600,242.5630035400390600,80.4617614746093800,22.6820907592773440,28.5074806213378900,143,126,94,84,60,15202,2159486043,2165328978,2171617481,2148311369,2152973430,2155340745,2157868416,2148066514,1774,2,16,1524
1341528903,5811,103.0699996948242200,22.7457008361816400,35.2323989868164060,242.2519989013672000,78.5864715576171900,22.7399005889892580,28.4978199005126950,112,124,93,84,62,15214,2162717083,2169577682,2175846811,2148447561,2154471396,2157303853,2159762176,2148264100,948,2,16,52564
1341529025,5808,99.0100021362304700,22.8209991455078120,35.2262001037597660,242.9647979736328000,76.0003204345703100,22.8196506500244140,28.4335002899169920,95,122,90,83,60,15248,2166899264,2174813275,2180994148,2148619547,2156733037,2160304832,2162487844,2148531428,3362,2,16,6196
1341529104,5809,95.9000015258789000,22.9358005523681640,35.2205009460449200,243.1985931396484400,72.9303970336914000,22.9143505096435550,28.3845996856689450,87,122,94,83,60,15241,2171566070,2180635785,2186889737,2148833234,2159245814,2163598134,2165446738,2148815826,3358,3,16,29337
1341529159,5809,93.2500000000000000,22.9934997558593750,35.2098999023437500,243.2693939208984400,70.7303619384765600,22.9822292327880860,28.3538093566894530,83,123,92,83,61,15242,2175270006,2184910857,2190941860,2149038208,2161330331,2166231990,2167696411,2149042953,394,2,16,19264
1341529214,5809,90.6699981689453100,23.0259990692138670,35.2088012695312500,243.2028961181640600,69.3192672729492200,23.0257892608642580,28.3392601013183600,81,124,93,85,60,15238,2178250614,2188083264,2193747428,2149239506,2163204297,2168497069,2169496877,2149225142,302,2,15,2921
1341529269,5808,88.1299972534179700,23.0865001678466800,35.2141990661621100,242.9306030273437500,66.1222763061523400,23.1244907379150400,28.3112697601318360,80,124,92,84,60,15236,2183091364,2193715291,2199230747,2149544548,2166151140,2172074816,2172482614,2149533458,3036,2,16,51028
1341529324,5809,85.7900009155273400,23.4442996978759770,35.2195014953613300,243.0919952392578000,56.0285606384277340,23.4364109039306640,28.1781406402587900,77,126,93,83,59,15232,2186991981,2198061485,2203259072,2149758656,2168580589,2175016923,2174830738,2149770788,2722,2,16,54462
1341529379,5809,84.1999969482421900,23.5722999572753900,35.2322006225585940,243.9441070556640600,52.0555191040039060,23.5593109130859380,28.0912303924560550,77,124,94,84,60,15236,2190482395,2201912091,2206931364,2150021577,2170930605,2177740059,2176994020,2150006116,2002,2,16,12039
1341529458,5805,82.2799987792968800,23.6179008483886720,35.2379989624023440,244.1466064453125000,50.2088394165039060,23.6164608001709000,28.0592002868652340,75,125,93,84,59,15235,2194931638,2206668662,2211123611,2150287012,2173893769,2181182043,2179725403,2150268416,1861,2,17,34234
1341529535,5807,80.1399993896484400,23.7122993469238280,35.2363014221191400,243.7077941894531200,47.1871109008789060,23.7100105285644530,28.0412902832031250,75,125,93,86,58,15237,2199663341,2211754294,2215938468,2150754112,2176825664,2184397924,2182168164,2150564754,2242,2,16,19432
1341529612,5807,78.2399978637695300,23.8257007598876950,35.2267990112304700,243.5637969970703000,43.7441596984863300,23.8166503906250000,28.0047702789306640,75,125,95,85,58,15232,2202523364,2214225115,2217529453,2150912466,2179316269,2187155574,2184320987,2150782180,2531,2,16,33815
1341529711,5808,76.5599975585937500,23.8540000915527340,35.2177009582519500,243.8697967529297000,42.3586311340332000,23.8595790863037100,27.9740791320800780,70,124,94,86,60,15236,2208036077,2220647497,2224108306,2151462610,2182635584,2190991753,2187386697,2151119881,2434,2,16,50654
1341529810,5807,74.0000000000000000,23.8994998931884770,35.2123985290527340,244.3137969970703000,41.0881805419921900,23.8989505767822270,27.9388294219970700,66,123,93,85,59,15231,2186436297,2191475410,2191076205,2149954550,2171308361,2175316370,2171964160,2149600621,1617,2,16,42947
1341529865,5803,71.7500000000000000,24.0221004486084000,35.2069015502929700,244.1170959472656200,36.7267494201660160,24.0341796875000000,27.8937797546386720,66,124,94,85,60,15236,2224715766,2237977353,2240182043,2153092214,2194146194,2203382592,2196646646,2152212452,1601,2,16,54789
1341529920,5806,69.5999984741211000,24.1420993804931640,35.2016983032226560,244.1920928955078000,33.5191497802734400,24.1336898803710940,27.8507900238037100,65,123,92,85,56,15240,2228658185,2241103058,2242062710,2153574409,2198208704,2207250304,2199166144,2152506230,1553,2,16,42198
1341529975,5808,67.9199981689453100,24.1609992980957030,35.2014999389648440,244.6515045166015600,32.6670608520507800,24.1601390838623050,27.8200492858886720,77,137,93,85,58,15224,2233786971,2246050998,2246357083,2154236205,2202527168,2211624521,2202255040,2152910253,1287,2,16,1805
1341530041,5806,66.0999984741211000,24.1776008605957030,35.2006988525390600,244.7532043457031200,31.9768600463867200,24.1815605163574220,27.8071804046630860,65,125,94,84,61,15229,2240254656,2252083273,2251371904,2155110802,2207946212,2216902765,2205856987,2153353051,969,2,16,63024
1341530119,5808,63.4399986267089840,24.1891002655029300,35.2023010253906250,244.9613952636718800,31.6512298583984380,24.1916694641113280,27.7941093444824220,64,122,94,85,59,15232,2252810221,2264502473,2262659858,2156917467,2217760484,2226512000,2212518299,2154243410,586,2,16,3910
1341530174,5809,60.8199996948242200,24.2880001068115230,35.1982002258300800,244.3390045166015600,28.2251892089843750,24.2980403900146500,27.7790699005126950,64,123,94,86,60,15231,2263656886,2274785481,2271562048,2158534756,2227834276,2236284571,2219181741,2155008914,236,3,16,32878
1341530229,5805,58.2599983215332000,24.4377994537353500,35.1741981506347660,244.3650970458984400,24.6506404876709000,24.4090995788574220,27.7337894439697270,62,122,93,85,57,15227,2277268964,2288681252,2284804288,2160902482,2238764059,2246942491,2226662473,2156128000,179,3,16,28997
1341530284,5807,56.0000000000000000,24.9480991363525400,35.1297988891601560,242.3858032226562500,8.8833513259887700,24.8997707366943360,27.6270294189453120,60,123,93,85,60,15228,2286111789,2296964818,2292431716,2162658212,2247929709,2255766345,2232504548,2157101385,728,1,16,53976
1341530350,5806,54.5699996948242200,25.0324001312255860,35.1272010803222660,242.3605957031250000,4.8810930252075195,25.0245494842529300,27.5789699554443360,58,122,92,85,62,15231,2294123172,2305437120,2300484416,2164139931,2255440329,2263275291,2238017609,2157761216,3484,2,16,7964
1341530472,5807,52.1199989318847660,25.0723991394042970,35.1204986572265600,241.7951965332031200,3.1864640712738037,25.0774002075195300,27.5830802917480470,59,120,91,84,58,15224,2313011675,2326277952,2321402898,2168257554,2272961837,2280677988,2250373686,2159608749,3298,2,17,48148
1341530538,5809,50.0800018310546900,25.2928009033203120,35.0882987976074200,240.6080017089843800,-2.8947649002075195,25.2672290802001950,27.5607604980468750,57,121,91,85,59,15226,2212228342,2211366802,2204321362,2153585115,2200442468,2198783094,2184177161,2151412635,2973,2,16,16555
1341530615,5807,48.6300010681152340,25.3397998809814450,35.0875015258789060,240.0099029541015600,-5.1401410102844240,25.3373699188232420,27.5598697662353500,59,122,91,84,60,15227,2334754834,2348751552,2342051794,2172526875,2301788626,2308313133,2269329307,2162239314,2643,3,16,27507
1341530759,5807,45.8100013732910160,25.3708992004394530,35.0824012756347660,239.1239929199218800,-6.4445261955261230,25.3781299591064450,27.5832405090332030,56,122,91,86,60,15226,2350454738,2364549220,2358751872,2180221174,2325237760,2327647954,2280838308,2164498587,3045,2,17,28897
1341530814,5808,43.5800018310546900,25.3787002563476560,35.0830993652343750,238.8892974853515600,-6.6310911178588870,25.3839607238769530,27.5913696289062500,55,120,92,85,57,15223,2358866331,2372689654,2366718528,2184006820,2342337993,2341857517,2288974976,2166073316,3296,2,16,47480
1341530869,5809,41.1800003051757800,25.3775997161865230,35.0812988281250000,238.7010040283203000,-6.7586479187011720,25.3879508972167970,27.5981998443603500,54,118,92,84,58,15230,2364660672,2377488768,2371562578,2189138294,2361007808,2357783872,2298268763,2167355053,3343,1,16,11968
1341530924,5805,38.6100006103515600,25.3850994110107420,35.0805015563964840,238.8356018066406200,-7.0131721496582030,25.3959007263183600,27.5890007019042970,55,118,92,85,58,15224,2372658880,2384662363,2378103862,2193426880,2381210889,2374647570,2308237942,2169367689,3322,2,16,46084
1341530979,5809,35.9700012207031250,25.4027004241943360,35.0801010131835940,238.8408966064453000,-7.5778841972351070,25.4135608673095700,27.5819492340087900,56,120,94,84,59,15223,2393922029,2408748507,2405106304,2207385664,2400137353,2389923318,2317372882,2172130358,3141,2,17,9433
1341531036,5808,33.2000007629394500,25.4174995422363280,35.0792999267578100,238.7987976074218800,-8.1985559463500980,25.4329605102539060,27.5762004852294920,54,120,92,85,60,15221,2415938267,2431156617,2427357915,2218982674,2427957604,2414533696,2333839643,2176997604,2948,1,16,1478
1341531091,5809,30.5100002288818360,25.4253997802734380,35.0789985656738300,238.8085937500000000,-8.3300466537475590,25.4370708465576170,27.5741291046142580,53,118,92,84,59,15221,2413200667,2426660571,2422048265,2223532480,2459014171,2442261915,2351879268,2179914523,2916,3,17,53926
1341531146,5810,27.8500003814697270,25.4416999816894530,35.0796012878418000,238.7160949707031200,-9.0543775558471680,25.4597206115722660,27.5694007873535160,54,119,94,84,54,15218,2449595611,2467198902,2466721161,2249129435,2494882651,2474631241,2373395840,2185960448,3007,2,16,59708